{"data":{"norad_id":58542,"epoch":"2026-09-20T21:39:20.930976Z","epoch_age_seconds":111940,"freshness":"FRESH","line1":"1 58542U 23192M   26263.90232559  .00002424  00000+0  82900-4 0  9999","line2":"2 58542  53.1589 231.7178 0001331  93.7033 266.4122 15.34377125155933","mean_motion":15.34377125,"eccentricity":0.0001331,"inclination_deg":53.1589,"raan_deg":231.7178,"arg_perigee_deg":93.7033,"mean_anomaly_deg":266.4122,"bstar":8.29e-5,"rev_number":15593,"period_min":93.84915719465,"perigee_km":461.860705487,"apogee_km":463.68175525793,"semimajor_km":6840.9082303725,"source":"CELESTRAK","updated_at":"2026-09-21T09:00:33.914200Z"}}